SCP
1 1 0 1 1 0 0 0 0 0 0 1 1 1 0 0 0 0 0 0 0 0 1 1 1 1 1 1 1 2 2 1 1 1 2 1 1 2 1 1 1 1 1 2 2 3 3 3 3
1 1 1 1 1 0 0 0 0 0 1 1 1 1 0 0 0 0 0 0 0 0 1 1 1 1 1 1 1 2 2 2 1 2 2 2 2 2 2 1 1 1 1 2 2 2 3 3 3
1 1 1 1 0 0 0 1 1 1 1 1 1 1 1 0 0 0 0 0 0 0 1 1 2 2 1 1 1 2 2 2 2 2 2 2 2 2 2 1 1 1 2 2 2 2 3 3 3
2 2 1 1 1 0 1 1 1 1 1 1 1 1 1 1 1 1 1 0 0 0 1 1 2 2 2 2 1 1 2 2 2 2 2 2 2 1 1 1 1 2 2 2 1 1 2 3 3
2 2 2 1 1 1 1 1 1 2 2 1 1 1 1 1 1 1 1 1 0 0 1 1 2 2 2 2 2 2 2 2 2 2 2 2 1 1 1 2 2 2 2 1 1 1 2 3 3
2 2 1 1 0 1 1 1 1 1 1 1 1 1 1 1 2 2 1 1 0 1 1 1 1 2 2 2 2 2 2 2 2 1 1 1 1 1 1 2 2 2 2 1 1 1 2 2 3
2 2 1 1 0 1 1 1 1 1 1 1 1 1 1 1 2 2 1 1 1 1 1 1 1 1 1 2 2 2 2 2 1 1 1 1 1 1 2 2 2 2 2 1 1 1 2 2 3
2 1 1 1 1 1 1 1 1 1 1 1 1 1 1 1 2 2 1 1 1 1 1 1 1 1 1 1 2 2 2 1 1 1 1 1 1 1 2 2 2 2 2 1 1 1 1 2 2
1 1 1 1 1 1 1 1 1 1 1 1 1 1 1 1 2 2 1 1 1 1 1 1 1 0 1 1 1 2 2 1 1 1 1 1 1 1 1 1 2 2 2 2 1 1 1 2 2
1 1 1 1 1 1 1 1 1 1 1 1 1 1 1 1 2 2 1 1 1 1 1 1 1 0 1 1 1 1 1 1 1 1 1 1 1 1 1 1 2 2 2 2 2 1 1 1 1
1 2 2 1 1 1 0 1 1 1 1 1 1 1 1 1 2 2 2 1 1 1 1 2 1 1 1 1 1 0 1 1 1 1 1 1 1 1 1 1 1 2 2 2 2 2 1 1 1
1 2 2 1 1 0 0 1 1 1 1 1 1 1 1 2 2 2 2 2 1 1 1 2 2 1 1 1 1 0 0 1 1 1 1 1 1 1 1 1 1 1 1 2 2 1 1 1 1
1 1 1 1 1 1 1 1 1 1 1 1 1 1 2 2 2 2 2 2 1 1 1 1 2 1 1 1 1 1 1 1 1 1 1 1 1 1 1 1 1 1 1 1 1 1 1 1 1
1 1 1 0 0 1 1 1 1 1 1 1 1 1 1 2 2 2 1 1 1 1 1 2 2 2 2 2 1 1 1 1 1 1 1 1 1 1 1 1 1 1 1 1 1 1 1 1 1
1 1 0 0 0 1 1 1 1 1 1 1 1 1 1 1 1 1 1 1 1 1 2 2 3 3 3 3 2 1 1 1 1 1 1 1 1 1 1 0 1 1 1 1 1 1 1 1 1
0 0 0 0 0 0 1 1 1 1 1 1 1 1 1 1 1 1 1 1 1 1 2 2 3 3 4 4 3 2 1 1 1 1 1 1 1 1 1 0 0 0 0 0 1 1 1 1 0
0 0 0 0 0 0 1 1 1 1 1 1 1 1 1 1 1 1 1 1 1 1 1 2 3 4 4 4 4 4 3 2 1 1 1 1 1 1 1 1 1 1 0 0 0 1 1 0 0
0 0 0 0 0 1 1 1 1 1 2 2 1 1 1 1 1 1 1 1 1 1 1 2 3 4 4 5 5 5 4 5 5 3 1 1 1 1 1 1 1 1 1 1 1 1 1 1 0
0 0 0 0 1 1 1 1 1 1 1 2 2 1 2 2 1 1 1 1 1 1 1 1 3 5 6 5 6 6 5 7 9 4 1 1 1 1 1 1 1 1 1 1 1 1 1 1 1
0 0 0 0 1 1 1 1 1 1 1 2 1 1 2 2 2 1 1 1 1 1 1 1 3 5 7 6 6 6 5 6 6 4 1 1 2 2 2 2 2 2 2 2 2 2 1 1 1
0 0 0 0 0 1 1 1 1 1 2 2 2 1 2 2 2 2 2 2 1 1 1 1 2 5 7 7 5 5 5 5 4 3 2 2 2 2 3 3 3 3 3 3 3 3 2 2 2
0 0 0 0 0 0 0 0 1 1 2 2 2 2 1 2 3 3 3 2 2 2 2 2 2 4 6 6 5 4 4 5 4 3 3 3 3 3 3 3 3 4 4 4 4 3 3 3 3
0 0 0 0 0 0 0 0 1 1 2 2 2 2 2 2 3 4 4 4 3 2 2 2 3 4 5 5 5 4 4 5 4 4 3 3 3 3 3 4 4 4 4 4 4 3 3 4 4
0 0 0 0 0 0 0 0 0 1 1 2 2 3 3 3 4 5 6 6 5 4 3 3 3 3 4 4 4 4 4 5 4 3 3 2 2 2 3 3 3 3 3 3 3 3 4 4 4
0 0 0 0 0 0 0 0 0 1 1 2 3 5 5 5 5 6 7 8 7 5 4 4 4 3 3 3 3 3 4 5 4 3 2 2 2 2 2 2 2 2 2 2 2 3 4 4 4
0 0 0 0 0 0 0 0 1 1 2 2 4 5 7 7 6 7 8 9 7 5 4 4 4 4 4 3 3 3 4 4 3 3 2 2 2 1 1 1 1 1 1 1 2 3 3 4 4
0 0 0 0 0 0 0 1 1 1 2 2 3 5 6 7 7 8 8 8 6 4 4 4 5 4 4 4 3 3 4 4 3 2 2 2 2 2 2 1 1 1 1 2 2 3 3 3 4
0 0 0 0 0 0 0 1 1 1 2 2 3 4 4 5 6 7 6 5 4 3 4 5 5 5 5 4 3 3 3 3 3 3 2 2 2 2 2 2 2 2 2 2 2 3 3 3 3
0 0 0 0 0 0 0 1 1 1 2 2 2 3 3 4 4 4 4 3 2 3 5 6 7 7 6 4 3 3 4 3 3 3 3 3 2 2 2 2 2 2 2 2 3 3 3 3 3
0 0 0 0 0 0 0 1 2 2 2 2 2 3 4 4 3 3 3 2 2 3 6 8 9 8 6 3 2 3 4 4 3 3 3 3 3 2 2 2 2 3 2 3 3 3 2 2 2
Wind_Speed
11 8 4 2 0 2 1 2 5 6 6 8 11 11 9 7 5 5 2 5 6 4 2 5 8 8 8 7 7 8 8 8 9 9 10 10 10 11 11 10 10 12 13 13 14 15 14 14 14
7 6 2 1 2 2 2 3 7 8 10 11 11 11 9 7 6 7 4 5 6 5 3 5 9 8 8 8 8 8 9 9 10 10 10 10 10 10 10 10 11 12 13 13 14 14 14 13 13
7 5 1 1 1 2 2 4 8 10 9 8 7 7 6 5 5 5 6 8 6 5 3 5 10 9 9 8 8 8 9 9 10 10 10 10 10 10 10 10 11 12 13 13 13 13 12 12 12
3 2 1 1 1 2 5 5 9 10 9 9 9 7 4 4 4 7 10 10 8 5 3 5 10 9 8 8 7 7 8 9 10 10 10 10 10 10 9 9 11 13 13 13 12 12 12 11 11
1 1 2 1 1 2 4 7 7 9 7 9 10 8 4 3 10 12 11 10 8 5 3 5 9 8 8 7 7 7 8 9 9 9 9 10 10 9 9 10 13 13 13 12 12 11 11 10 11
1 2 2 1 3 3 3 7 11 12 12 11 10 8 3 5 10 11 10 9 8 6 4 4 8 8 8 7 7 7 7 8 9 9 9 9 9 9 9 10 13 13 13 12 12 12 10 10 10
1 2 1 2 3 4 4 6 9 10 10 7 7 6 4 5 8 10 9 8 6 6 5 3 3 5 7 7 7 7 8 8 8 8 9 9 9 9 10 11 12 13 12 11 11 11 10 10 10
3 1 1 2 3 3 5 5 8 10 9 9 7 7 5 6 8 9 8 7 6 5 4 3 2 2 2 3 7 7 8 8 8 8 9 9 9 10 11 11 12 12 11 10 10 10 9 8 8
2 2 0 2 3 3 6 8 7 7 9 6 5 6 9 11 12 10 7 6 5 5 3 3 2 2 2 2 4 5 7 7 7 6 8 6 4 4 6 10 11 11 10 9 8 8 8 7 6
3 2 3 3 4 4 7 8 6 7 9 8 8 9 10 11 11 10 9 7 5 4 3 3 3 2 2 3 3 2 3 3 3 3 3 3 3 3 5 8 10 10 9 8 7 7 6 4 2
3 4 2 1 4 6 6 5 5 9 7 9 12 12 11 10 9 9 8 7 6 5 4 3 3 3 3 2 3 2 2 2 3 3 3 3 3 2 3 2 3 4 4 3 3 2 1 1 2
2 1 2 3 4 6 6 5 5 7 8 11 13 13 12 10 8 8 8 6 5 4 4 3 4 3 3 3 2 2 2 2 2 2 3 3 2 2 2 2 2 2 1 2 2 1 1 2 2
2 1 1 3 4 6 7 7 8 7 11 12 13 12 12 10 8 6 7 7 6 5 4 4 4 4 3 3 2 3 2 2 2 2 2 3 2 2 2 2 1 1 2 2 1 1 1 2 2
3 2 3 3 4 5 10 8 7 7 11 13 13 11 10 10 9 7 7 6 6 5 5 4 5 4 4 3 3 2 2 2 3 2 2 3 3 2 2 2 2 1 1 2 2 2 2 2 2
2 3 3 2 4 4 9 6 6 9 11 12 12 11 10 8 9 9 8 7 6 6 5 4 5 4 4 3 3 3 2 3 3 2 2 3 3 3 2 2 2 1 1 2 2 1 1 2 2
3 3 1 3 2 4 8 5 5 9 11 10 11 11 9 8 8 8 8 7 6 6 5 4 5 5 4 3 3 2 3 3 2 2 2 3 3 3 2 2 1 1 2 2 2 1 2 1 1
4 1 2 3 1 2 5 5 6 8 10 9 9 9 9 8 7 7 8 8 7 6 6 5 5 4 3 3 3 3 2 2 2 2 2 2 3 3 2 2 1 1 2 1 1 1 2 1 1
3 2 2 3 2 4 4 4 5 6 9 10 9 8 9 9 8 8 8 8 7 6 6 5 5 4 3 3 3 3 3 2 2 2 2 2 2 3 2 2 1 1 2 1 1 1 1 1 1
4 3 4 3 3 4 5 5 4 3 5 8 8 8 8 7 6 6 7 8 7 6 6 5 5 3 3 2 2 2 1 1 1 1 2 2 2 2 2 2 2 2 1 1 1 1 1 0 1
3 2 3 2 2 4 6 4 4 4 6 7 8 8 8 6 5 6 6 6 7 7 6 6 5 4 3 2 2 2 2 1 1 1 1 1 2 2 2 2 2 1 1 1 1 1 1 0 1
4 4 4 3 1 3 6 3 0 2 3 6 8 7 8 10 9 8 7 6 6 6 6 6 5 5 4 3 2 2 2 2 2 1 1 1 1 2 2 2 2 1 1 1 1 1 2 1 1
5 5 5 4 3 1 3 2 4 3 3 5 7 7 8 9 8 7 7 6 7 6 6 5 5 5 4 4 3 3 3 1 1 1 0 0 1 1 2 2 2 1 1 1 1 1 1 2 0
7 6 3 3 3 2 2 3 4 1 3 5 6 8 8 8 9 8 8 8 6 6 5 5 4 4 4 4 4 3 2 1 1 1 1 1 1 1 1 1 1 1 1 1 1 1 1 1 1
3 3 5 5 5 2 3 3 3 4 7 6 5 7 7 8 8 7 6 6 5 5 5 5 5 4 4 4 4 4 3 2 2 1 1 0 0 0 0 1 1 1 1 1 1 1 1 1 1
4 6 4 5 4 4 2 2 5 4 5 8 8 7 6 6 6 7 7 6 6 5 4 4 5 4 4 4 4 4 3 3 3 2 2 1 0 0 1 1 1 0 1 1 1 1 1 1 1
2 9 7 4 4 3 3 1 4 2 4 6 6 5 6 6 6 8 8 8 7 6 5 5 5 4 3 4 3 3 3 2 2 2 2 2 1 1 1 1 1 0 0 1 1 1 0 1 1
2 3 8 7 2 1 2 2 4 3 5 7 6 5 5 5 6 6 7 7 6 6 6 6 5 4 4 4 3 3 3 2 2 2 1 1 1 1 1 1 1 1 1 1 1 1 0 1 0
4 5 5 6 4 1 2 3 4 4 5 7 7 6 5 5 5 5 5 5 5 5 4 4 5 4 3 3 3 3 2 2 2 2 2 1 1 0 1 1 1 1 1 1 1 1 0 1 0
1 2 5 4 6 6 3 5 6 10 9 9 9 8 7 7 6 5 5 4 5 5 4 4 3 3 3 3 2 2 2 2 2 2 2 1 1 0 1 1 1 1 1 1 1 0 1 1 0
3 3 6 5 3 4 4 6 2 8 8 8 8 7 7 7 5 5 5 4 4 5 4 4 4 3 3 3 2 2 2 2 2 2 1 1 1 1 1 1 1 1 1 1 1 0 0 1 0
Wind_Direction
161 159 161 190 32 32 66 93 104 85 68 66 75 81 79 65 89 119 155 134 125 127 121 113 100 97 97 93 87 87 89 94 99 110 112 112 115 118 120 121 126 136 140 140 144 144 143 144 143
160 165 185 216 61 62 54 92 90 100 122 109 83 82 77 71 87 112 129 143 134 127 116 110 104 97 97 94 89 91 91 92 97 104 108 111 114 117 118 119 124 131 135 136 140 142 142 143 144
172 191 199 55 110 167 138 112 107 103 106 97 89 70 72 96 107 130 153 145 128 118 114 113 106 102 100 96 92 93 93 93 96 101 105 109 111 112 115 122 127 129 131 134 135 138 139 141 143
172 179 39 52 163 187 135 125 113 105 85 80 96 77 68 97 120 134 141 136 124 121 120 115 110 106 103 98 95 97 95 95 96 100 101 105 107 109 113 123 131 129 130 132 134 136 138 141 143
99 85 43 15 88 97 114 126 116 102 93 92 95 98 85 78 112 127 134 134 130 129 124 119 113 110 105 101 100 102 100 97 98 99 99 103 105 108 110 115 128 130 129 130 130 132 136 140 137
58 63 65 57 82 85 98 110 100 101 109 108 104 108 108 116 121 133 134 133 132 132 125 117 117 112 106 104 104 108 108 106 104 101 99 102 107 108 110 115 125 129 130 129 128 128 125 121 121
137 91 167 126 104 103 112 110 107 113 120 121 123 105 121 131 136 135 130 127 127 125 121 107 106 108 108 105 105 114 115 112 110 107 103 106 105 103 107 117 124 127 127 129 128 128 125 124 123
174 112 21 131 124 120 114 99 114 113 113 128 122 123 151 163 138 123 119 118 123 118 124 128 110 88 96 104 111 123 126 120 117 112 110 106 104 98 102 114 120 126 127 128 130 129 128 126 127
155 72 160 174 144 140 117 100 96 93 105 105 99 126 147 140 125 117 112 109 122 125 123 129 125 109 106 103 111 116 125 123 122 115 113 106 86 88 95 111 121 127 132 135 137 135 133 133 131
140 138 207 194 155 145 124 115 117 101 98 96 99 108 126 128 129 130 132 132 135 144 149 145 145 137 118 110 92 88 102 101 93 86 94 85 84 96 109 119 127 131 136 138 141 143 140 133 125
141 166 171 160 152 132 122 109 110 118 121 140 138 136 134 129 132 136 141 145 149 152 146 148 146 131 117 95 97 88 91 90 89 92 96 93 86 91 90 91 103 111 122 119 126 125 112 118 129
135 187 178 137 130 122 128 131 118 128 149 148 140 138 135 133 135 139 138 140 134 128 132 126 137 127 122 113 105 104 106 106 110 113 111 103 97 101 103 96 96 90 95 106 105 119 134 147 153
148 182 148 137 125 130 116 114 118 119 134 135 133 131 136 137 139 135 130 127 118 112 114 113 115 114 110 109 104 100 105 114 118 107 109 112 113 115 115 114 109 113 119 126 135 143 144 149 153
210 176 124 116 110 128 119 116 105 135 137 135 134 135 141 143 141 128 124 124 119 116 114 116 113 115 110 107 103 98 98 98 102 101 108 113 112 117 118 114 113 122 140 138 139 150 144 132 124
99 83 54 123 139 143 114 101 134 148 139 139 140 140 141 143 139 137 142 140 136 132 122 122 120 110 108 108 110 98 97 103 99 96 98 105 109 108 109 109 99 109 116 114 111 99 91 102 109
38 49 31 269 148 157 115 143 168 149 138 140 145 145 144 144 143 144 144 139 140 133 128 130 125 116 110 107 99 93 90 102 104 99 103 109 110 113 106 95 90 78 85 93 103 98 87 85 108
24 22 284 282 225 127 112 156 173 149 143 145 148 147 147 143 142 148 149 143 142 139 132 124 120 124 121 107 97 88 87 97 97 94 99 103 98 103 106 103 100 92 89 97 114 102 119 123 129
244 249 265 249 224 98 99 132 143 151 147 148 149 148 148 151 156 154 152 146 139 133 128 126 125 125 115 97 80 65 65 69 73 88 104 107 100 101 105 104 92 93 89 75 100 121 115 151 168
212 236 270 250 191 112 110 111 131 144 138 145 148 151 156 162 159 149 147 145 137 133 129 128 126 129 119 106 100 92 86 77 70 79 99 103 103 110 106 102 86 94 111 147 131 113 101 88 103
241 218 267 299 161 130 117 116 141 148 163 155 151 157 160 154 148 145 146 150 148 149 146 142 144 142 140 138 139 135 132 128 140 103 86 115 122 130 120 116 114 115 107 75 73 99 102 172 137
261 214 221 207 29 85 104 43 268 174 144 142 152 163 158 164 163 159 155 155 149 154 160 156 156 148 147 137 110 86 62 40 39 40 34 29 101 106 106 117 121 126 131 133 135 127 135 182 279
252 242 209 192 125 218 138 167 263 198 158 166 168 166 163 163 157 155 154 157 163 166 158 148 150 147 149 138 130 131 132 143 196 186 160 341 72 109 128 131 136 139 137 149 206 161 148 143 237
221 228 204 180 130 63 31 124 270 179 172 194 181 171 168 162 159 167 167 164 158 155 147 140 137 137 140 138 142 138 133 151 146 103 92 53 34 84 131 130 133 134 144 170 186 141 120 145 173
186 67 42 52 68 21 255 150 241 206 196 180 170 169 161 160 163 166 162 150 145 140 140 142 140 143 146 144 143 144 143 141 125 125 129 45 15 13 241 134 137 157 178 185 183 166 141 156 158
88 87 39 9 17 262 270 133 236 220 175 163 162 167 163 156 154 154 151 148 151 149 152 148 144 150 157 153 151 152 151 150 157 171 175 171 161 236 247 187 175 184 205 178 144 119 137 153 143
185 134 152 187 207 272 334 229 263 193 132 131 141 154 142 142 157 158 159 162 162 159 159 154 153 153 162 165 168 157 150 154 167 176 173 177 189 203 191 168 150 117 101 137 129 114 129 105 110
163 168 164 135 128 94 297 305 326 89 106 119 126 130 137 142 147 153 153 152 156 158 163 163 159 161 166 172 168 159 153 151 167 177 168 170 186 179 180 174 153 138 99 111 123 108 136 99 96
161 156 94 110 136 190 256 226 214 182 154 143 146 149 149 142 134 126 132 144 156 162 159 152 160 168 160 154 168 162 161 165 173 156 162 175 194 192 144 97 101 87 80 98 123 131 101 103 261
41 78 105 117 145 150 206 256 214 175 167 163 165 166 151 142 138 134 133 144 155 148 143 140 138 133 139 146 148 160 166 168 156 155 185 182 168 119 115 115 101 79 57 75 106 140 140 136 312
160 158 137 143 207 157 159 261 258 164 158 157 162 156 150 149 147 136 124 122 138 140 139 145 148 142 147 143 134 164 169 159 155 162 183 158 135 137 154 133 115 102 74 45 91 139 99 132 138